METEOR 2-11 DEB, 42456

Orbit data source: Space-Track

METEOR 2-11 DEB, 42456 is space debris in LEO originally from a launch on Thu, 05 Jul 1984 UTC launched from the Plesetsk Missile And Space Complex (PKMTR). Debris objects in space refer to the collection of defunct objects orbiting the Earth. Examples of debris include non-operational satellites, rocket bodies, and fragments generated from explosions, collisions, or faulty payload assembly.

Loading next visibility...
Identifier
42456, 1984-072S
Orbit
LEO
Country
Flag of CISCIS
Related business
Manufacturer
Unknown
Mission
Spacecraft
Bus & Motor
Unknown
Mass
Unknown
Launch date (UTC)
1984-07-05 (41 years ago)
Launch vehicle
Unknown
Launch site
Plesetsk Missile And Space Complex (PKMTR)
Object type
Payload
Rocket body
Debris
Shape & HBR
Unknown
Radar Cross Section
Small (<0.1 m²)

Expand to show TLE details & history
Last TLE update: 23 hours ago

TLE from 23 hours ago
0 METEOR 2-11 DEB
1 42456U 84072S   25261.27709287  .00000802  00000-0  58309-3 0  9998
2 42456  82.5380 244.8773 0041025  70.6308 289.9286 13.94763699549739
Epoch: 2025-09-18T06:39Z
TLE epoch observation values (Epoch: 2025-09-18T06:39:00.823Z)
Latitude
-0.00006°
Longitude
147.68286°
Altitude
904.814 km
Speed
7.405 km/s
True Right ascension
16h 19m 30s
True Declination
0° 00' 00"
Sunlit
Object was in daylight at epoch
Visualization orbit readout
Latitude
Unknown
Longitude
Unknown
Altitude
Unknown
Speed
Unknown
Apparent Right ascension
Unknown
Apparent Declination
Unknown
Sunlit
N/A
Visualization observer readout
Local Sidereal Time
22:07:35
Azimuth
Unknown
Elevation
Unknown
Doppler factor
Unknown
Orbital elements
Apogee altitude
939.018 km
Perigee altitude
879.226 km
Semi-major axis
7,287.259 km
Eccentricity
0.0041
Inclination
82.538°
RAAN
244.8773°
Arg. of periapsis
70.6308°
True anomaly
289.48587°
Mean anomaly
289.9286°
Eccentric anomaly
289.70731°
Mean motion
3.48897 °/min
Orbital period
103.18 mins
BSTAR
0.00058309
Loading maneuver chart data...
Computing Atmospheric mass density...
Loading historical data...
Loading historical data...
Loading historical data...
Loading historical data...
Loading historical data...
Loading historical data...
Loading historical data...

Documentation

Showing up to 5 results
|